User: anonymous   Login
Location: Newark
(54.3386°S, 169.8415°W)
Time: 11:57:59
(UTC+00:00)
Language:

Transit 2A - Orbit

View from above orbital plane
View from above orbital plane
View from above satellite
View from above satellite

Ground track
Ground track

The orbit data is extracted from the following two-line orbital elements,

1    45U 60007A   19292.51506578 -.00000060 +00000-0 +11652-4 0  9998
2    45 066.6936 298.4499 0250161 132.9431 229.2955 14.33652071031156
Epoch (UTC): 19 October 2019 12:21:41
Eccentricity: 0.0250161
inclination: 66.6936°
perigee height: 600 km
apogee height: 958 km
right ascension of ascending node: 298.4499°
argument of perigee: 132.9431°
revolutions per day: 14.33652071
mean anomaly at epoch: 229.2955°
orbit number at epoch: 3115

The dashed part of the orbit path shows where the satellite is in the earth's shadow,  

DLR